Home   Weather   Temuco   Past weeks

Flag for Chile Past Weather in Temuco, Chile — Yesterday and Last 2 Weeks

Now
77 °F

Sunny.


Feels Like: 79 °F
Forecast: 53 / 83 °F
Wind: 24 mph from Southwest

Location: Concepcion Airport

Current Time: Jan 20, 2017 at 9:12:50 pm

Latest Report: Jan 20, 2017 at 8:00 pm


Visibility: 10 mi

Pressure: 29.95 "Hg

Humidity: 47%

Dew Point: 55 °F

Location of TemucoLocation

Past Weather in Temuco — Graph

°F

Temuco Temperature Yesterday

Maximum temperature yesterday: 77 °F (at 1:00 pm)
Minimum temperature yesterday: 54 °F (at 6:00 am)
Average temperature yesterday: 66 °F

High & Low Weather Summary for the Past Weeks

 TemperatureHumidityPressure
High82 °F (Jan 20, 3:00 pm)100% (Jan 8, 11:00 pm)30.07 "Hg (Jan 8, 11:00 pm)
Low50 °F (Jan 10, 7:00 am)38% (Jan 18, 1:00 pm)29.86 "Hg (Jan 5, 8:00 pm)
Average65 °F72%29.98 "Hg
* Reported Jan 5 8:00 pm — Jan 20 8:00 pm, Temuco, Weather by CustomWeather, © 2017

Note: Actual official high and low records may vary slightly from our data, if they occured in-between our weather recording intervals... More about our weather records

Advertising

Temuco Weather History for the Previous 24 Hours

Scroll right to see more
 ConditionsComfort  
Time TempWeatherWind HumidityBarometerVisibility
8:00 pm
Fri, Jan 20
77 °FSunny.24 mph47%29.95 "Hg10 mi
7:00 pm81 °FPassing clouds.24 mph48%29.95 "HgN/A
6:00 pm79 °FSunny.21 mph54%29.95 "Hg10 mi
5:00 pm79 °FSunny.20 mph58%29.98 "Hg10 mi
4:00 pm79 °FSunny.18 mph54%29.98 "Hg10 mi
3:00 pm82 °FPassing clouds.17 mph45%29.98 "HgN/A
2:00 pm79 °FSunny.15 mph54%29.98 "Hg10 mi
1:00 pm77 °FSunny.15 mph54%29.98 "Hg10 mi
12:00 pm77 °FPassing clouds.12 mph57%29.98 "HgN/A
11:00 am79 °FPassing clouds.10 mph51%29.98 "HgN/A
10:00 am75 °FPassing clouds.8 mph57%29.98 "HgN/A
9:00 am66 °FPassing clouds.6 mph83%29.98 "HgN/A
8:00 am61 °FSunny.6 mph94%29.98 "Hg10 mi
7:00 am59 °FSunny.6 mph94%29.98 "Hg10 mi
6:00 am59 °FClear.5 mph94%29.95 "Hg10 mi
5:00 am59 °FClear.5 mph94%29.95 "Hg10 mi
4:00 am61 °FClear.7 mph88%29.98 "Hg10 mi
3:00 am61 °FClear.7 mph94%29.98 "Hg10 mi
2:00 am63 °FPassing clouds.8 mph88%30.01 "HgN/A
1:00 am63 °FClear.9 mph88%30.01 "Hg10 mi
12:00 am64 °FClear.13 mph83%30.01 "Hg10 mi
11:00 pm
Thu, Jan 19
66 °FClear.14 mph78%30.01 "Hg10 mi
10:00 pm66 °FClear.13 mph78%29.98 "Hg10 mi
9:00 pm70 °FSunny.17 mph69%29.98 "Hg10 mi
Weather by CustomWeather, © 2017

See weather overviewHow to use our weather pages